TimeCST,TemperatureF,Dew PointF,Humidity,Sea Level PressureIn,VisibilityMPH,Wind Direction,Wind SpeedMPH,Gust SpeedMPH,PrecipitationIn,Events,Conditions,WindDirDegrees,DateUTC
12:16 AM,-7.6,-11.2,84,30.11,10.0,NW,8.1,-,N/A,,Clear,310,2013-01-20 06:16:00
12:36 AM,-7.6,-11.2,84,30.12,10.0,WNW,5.8,-,N/A,,Scattered Clouds,290,2013-01-20 06:36:00
12:57 AM,-7.6,-11.2,84,30.12,10.0,WNW,3.5,-,N/A,,Scattered Clouds,300,2013-01-20 06:57:00
2:36 AM,-11.2,-14.8,84,30.16,10.0,WNW,5.8,-,N/A,,Clear,290,2013-01-20 08:36:00
2:57 AM,-11.2,-16.6,77,30.16,10.0,WNW,3.5,-,N/A,,Clear,290,2013-01-20 08:57:00
3:16 AM,-11.2,-16.6,77,30.15,10.0,WNW,4.6,-,N/A,,Clear,290,2013-01-20 09:16:00
3:37 AM,-13.0,-16.6,84,30.16,10.0,West,5.8,-,N/A,,Clear,280,2013-01-20 09:37:00
3:57 AM,-14.8,-18.4,84,30.17,10.0,West,5.8,-,N/A,,Clear,270,2013-01-20 09:57:00
4:16 AM,-14.8,-18.4,84,30.16,10.0,West,3.5,-,N/A,,Clear,270,2013-01-20 10:16:00
4:37 AM,-14.8,-18.4,84,30.18,10.0,West,5.8,-,N/A,,Clear,270,2013-01-20 10:37:00
4:57 AM,-14.8,-18.4,84,30.18,10.0,West,6.9,-,N/A,,Clear,270,2013-01-20 10:57:00
5:16 AM,-14.8,-18.4,84,30.20,10.0,West,9.2,-,N/A,,Clear,270,2013-01-20 11:16:00
5:37 AM,-14.8,-18.4,84,30.20,10.0,West,5.8,-,N/A,,Clear,270,2013-01-20 11:37:00
5:56 AM,-14.8,-18.4,84,30.21,10.0,West,6.9,-,N/A,,Clear,270,2013-01-20 11:56:00
6:17 AM,-14.8,-18.4,84,30.20,10.0,West,6.9,-,N/A,,Clear,280,2013-01-20 12:17:00
6:37 AM,-14.8,-18.4,84,30.20,10.0,West,3.5,-,N/A,,Clear,280,2013-01-20 12:37:00
6:56 AM,-14.8,-18.4,84,30.21,10.0,West,4.6,-,N/A,,Clear,270,2013-01-20 12:56:00
7:17 AM,-16.6,-20.2,84,30.21,10.0,West,4.6,-,N/A,,Clear,270,2013-01-20 13:17:00
7:37 AM,-16.6,-20.2,84,30.21,10.0,West,3.5,-,N/A,,Scattered Clouds,280,2013-01-20 13:37:00
7:56 AM,-16.6,-20.2,84,30.21,10.0,West,3.5,-,N/A,,Scattered Clouds,270,2013-01-20 13:56:00
8:17 AM,-18.4,-23.8,76,30.22,-9999.0,West,3.5,-,N/A,,Clear,260,2013-01-20 14:17:00
8:36 AM,-18.4,-23.8,76,30.22,-9999.0,West,3.5,-,N/A,,Clear,270,2013-01-20 14:36:00
9:36 AM,-14.8,-18.4,84,30.22,10.0,West,6.9,-,N/A,,Clear,280,2013-01-20 15:36:00
9:57 AM,-14.8,-18.4,84,30.23,-9999.0,West,5.8,-,N/A,,Unknown,270,2013-01-20 15:57:00
10:16 AM,-13.0,-18.4,77,30.23,10.0,West,8.1,-,N/A,,Clear,260,2013-01-20 16:16:00
10:36 AM,-13.0,-16.6,84,30.23,10.0,West,5.8,-,N/A,,Clear,270,2013-01-20 16:36:00
10:57 AM,-9999,-9999,N/A,30.23,-9999.0,West,5.8,-,N/A,,Unknown,270,2013-01-20 16:57:00
11:17 AM,-9.4,-14.8,77,30.23,-9999.0,WSW,4.6,-,N/A,,Overcast,250,2013-01-20 17:17:00
11:36 AM,-9.4,-14.8,77,30.22,3.0,West,6.9,-,N/A,,Haze,280,2013-01-20 17:36:00
11:57 AM,-7.6,-14.8,71,30.22,3.0,West,8.1,-,N/A,,Haze,270,2013-01-20 17:57:00
12:17 PM,-7.6,-14.8,71,30.21,10.0,West,9.2,-,N/A,,Scattered Clouds,270,2013-01-20 18:17:00
12:36 PM,-5.8,-14.8,65,30.20,10.0,West,9.2,-,N/A,,Clear,270,2013-01-20 18:36:00
12:56 PM,-5.8,-13.0,71,30.20,10.0,West,5.8,-,N/A,,Clear,260,2013-01-20 18:56:00
1:17 PM,-4.0,-13.0,65,30.19,10.0,West,10.4,-,N/A,,Scattered Clouds,270,2013-01-20 19:17:00
1:37 PM,-4.0,-13.0,65,30.18,10.0,West,8.1,-,N/A,,Clear,270,2013-01-20 19:37:00
1:56 PM,-2.2,-11.2,66,30.16,10.0,WSW,6.9,-,N/A,,Clear,250,2013-01-20 19:56:00
2:36 PM,-2.2,-11.2,66,30.17,7.0,West,9.2,-,N/A,,Scattered Clouds,270,2013-01-20 20:36:00
2:56 PM,-2.2,-11.2,66,30.16,10.0,West,9.2,-,N/A,,Mostly Cloudy,270,2013-01-20 20:56:00
3:17 PM,-2.2,-11.2,66,30.17,3.0,West,10.4,-,N/A,,Haze,270,2013-01-20 21:17:00
4:17 PM,-4.0,-11.2,71,30.15,10.0,West,9.2,-,N/A,,Clear,280,2013-01-20 22:17:00
4:36 PM,-5.8,-13.0,71,30.15,10.0,West,8.1,-,N/A,,Clear,270,2013-01-20 22:36:00
4:56 PM,-5.8,-11.2,77,30.14,10.0,West,4.6,-,N/A,,Clear,260,2013-01-20 22:56:00
5:17 PM,-7.6,-13.0,77,30.14,10.0,West,5.8,-,N/A,,Clear,260,2013-01-20 23:17:00
5:36 PM,-7.6,-14.8,71,30.13,10.0,West,4.6,-,N/A,,Clear,260,2013-01-20 23:36:00
5:56 PM,-9.4,-14.8,77,30.13,10.0,West,4.6,-,N/A,,Clear,260,2013-01-20 23:56:00
6:17 PM,-9.4,-14.8,77,30.13,10.0,WSW,5.8,-,N/A,,Clear,250,2013-01-21 00:17:00
6:36 PM,-9.4,-14.8,77,30.12,10.0,WSW,4.6,-,N/A,,Clear,250,2013-01-21 00:36:00
6:57 PM,-9.4,-14.8,77,30.13,10.0,West,3.5,-,N/A,,Clear,260,2013-01-21 00:57:00
7:17 PM,-9.4,-14.8,77,30.14,10.0,WSW,5.8,-,N/A,,Clear,250,2013-01-21 01:17:00
7:36 PM,-9.4,-14.8,77,30.12,10.0,West,5.8,-,N/A,,Clear,260,2013-01-21 01:36:00
7:57 PM,-11.2,-14.8,84,30.12,10.0,WSW,4.6,-,N/A,,Clear,250,2013-01-21 01:57:00
8:16 PM,-11.2,-14.8,84,30.11,10.0,West,8.1,-,N/A,,Clear,270,2013-01-21 02:16:00
8:37 PM,-11.2,-14.8,84,30.11,10.0,West,9.2,-,N/A,,Scattered Clouds,270,2013-01-21 02:37:00
8:56 PM,-11.2,-16.6,77,30.11,10.0,West,10.4,17.3,N/A,,Mostly Cloudy,270,2013-01-21 02:56:00
9:17 PM,-11.2,-16.6,77,30.11,10.0,West,10.4,-,N/A,,Overcast,270,2013-01-21 03:17:00
9:36 PM,-11.2,-16.6,77,30.11,10.0,West,9.2,-,N/A,,Scattered Clouds,280,2013-01-21 03:36:00
9:57 PM,-11.2,-16.6,77,30.11,5.0,West,11.5,-,N/A,,Haze,270,2013-01-21 03:57:00
10:16 PM,-13.0,-18.4,77,30.12,5.0,West,15.0,19.6,N/A,,Haze,270,2013-01-21 04:16:00
10:37 PM,-13.0,-18.4,77,30.12,7.0,West,11.5,-,N/A,,Scattered Clouds,270,2013-01-21 04:37:00
10:57 PM,-14.8,-20.2,77,30.12,10.0,West,9.2,16.1,N/A,,Clear,280,2013-01-21 04:57:00
11:16 PM,-14.8,-20.2,77,30.12,10.0,West,10.4,-,N/A,,Mostly Cloudy,280,2013-01-21 05:16:00
11:37 PM,-14.8,-20.2,77,30.12,10.0,West,9.2,-,N/A,,Mostly Cloudy,280,2013-01-21 05:37:00